Location: Napier
(39.4830°S, 176.9170°E)
Time: 10:27:46
(UTC+13:00)

Cosmos 1707 Rocket - Pass Details

Date: 24 January 2019
Orbit: 604 x 633 km, 82.5° (Epoch: 21 February)

Event Time Altitude Azimuth Distance (km) Brightness Sun altitude
Exits shadow 22:55:33 64° 15° (NNE) 679 3.4 -21.8°
Maximum altitude 22:56:10 81° 83° (E) 627 3.4 -21.9°
Drops below altitude 10° 23:00:34 10° 170° (S) 1,989 6.7 -22.4°
Sets 23:02:49 0° 171° (S) 2,904 7.7 -22.6°
